Regional Weather Roundup
Issued by NWS Goodland, KS

Home | Current Version | Previous Version | Graphics & Text | Print | Product List | Glossary On
Versions: 1 2 3 4 5 6 7 8 9 10 11 12 13 14 15 16 17 18 19 20 21 22 23 24 25 26 27 28 29 30 31 32 33 34 35 36 37 38 39 40 41 42 43 44 45 46 47 48 49 50
000
ASUS43 KGLD 231508
RWRGLD

GOODLAND FORECAST AREA HOURLY WEATHER ROUNDUP
NATIONAL WEATHER SERVICE GOODLAND KS
900 AM MDT WED MAY 23 2018

...OFFICIAL OBSERVATIONS...

CITY           SKY/WX    TMP DP  RH WIND       PRES   REMARKS
GOODLAND KS    CLOUDY    70  52  52 S23G33    30.01R
HILL CITY KS   CLOUDY    76  59  55 S12G22    30.01F
IMPERIAL NEB   PTSUNNY   71  55  56 S9        29.99S
MCCOOK NEB     CLOUDY    71  58  63 S10       30.01R
AKRON CO       PTSUNNY   61  52  72 W9        30.02R
BURLINGTON CO  CLOUDY    68  52  56 S30G39    30.03R
LIMON CO       PTSUNNY   61  48  62 SW3       30.07R
$$

...UNOFFICIAL OBSERVATIONS...

CITY           SKY/WX    TMP DP  RH WIND       PRES   REMARKS
COLBY KS       CLOUDY    73  54  49 S18       30.02S
NORTON KS      SUNNY     77  61  57 SE10      30.01
SHARON SPRINGS   N/A     68  54  61 MISG        N/A
KIT CARSON CO    N/A     67  51  56 MISG        N/A
YUMA CO        FAIR      64  45  48 S10       30.02R
$$



USA.gov is the U.S. government's official web portal to all federal, state and local government web resources and services.